,,,PA_Meas_PMT16A,,PR_Meas_QMR101_102,,RH_Meas_QMH101,,SR_Meas_QMS101,,TA_Meas_QMH101,,GenWind,,GenWind,
date,time,status,PA,status,PR,status,RH,status,SR,status,TA,status,DirAvg,status,SpdAvg,
2009-11-01, 00:00:04,VALID,1004.42,VALID,0,VALID,94.0946,VALID,0,VALID,23.9566,VALID,20,VALID,0,
2009-11-01, 00:01:04,VALID,1004.41,VALID,0,VALID,94.0565,VALID,0,VALID,23.9566,VALID,20,VALID,0,
2009-11-01, 00:02:04,VALID,1004.4,VALID,0,VALID,94.0717,VALID,0,VALID,23.9371,VALID,20,VALID,0,
2009-11-01, 00:03:04,VALID,1004.4,VALID,0,VALID,94.087,VALID,0,VALID,23.9159,VALID,20,VALID,0,
2009-11-01, 00:04:04,VALID,1004.4,VALID,0,VALID,94.0488,VALID,0,VALID,23.9177,VALID,20,VALID,0,
2009-11-01, 00:05:04,VALID,1004.39,VALID,0,VALID,94.0488,VALID,0,VALID,23.9177,VALID,20,VALID,0,
2009-11-01, 00:06:04,VALID,1004.36,VALID,0,VALID,94.0641,VALID,0,VALID,23.9177,VALID,20,VALID,0,
2009-11-01, 00:07:04,VALID,1004.37,VALID,0,VALID,94.1022,VALID,0,VALID,23.8982,VALID,20,VALID,0,
2009-11-01, 00:08:04,VALID,1004.39,VALID,0,VALID,94.148,VALID,0,VALID,23.8769,VALID,20,VALID,0,
2009-11-01, 00:09:04,VALID,1004.4,VALID,0,VALID,94.1633,VALID,0,VALID,23.8575,VALID,20,VALID,0,
2009-11-01, 00:10:04,VALID,1004.39,VALID,0,VALID,94.148,VALID,0,VALID,23.8185,VALID,20,VALID,0,
2009-11-01, 00:11:04,VALID,1004.4,VALID,0,VALID,94.1328,VALID,0,VALID,23.7814,VALID,20,VALID,0,
2009-11-01, 00:12:04,VALID,1004.37,VALID,0,VALID,94.148,VALID,0,VALID,23.7814,VALID,20,VALID,0,
2009-11-01, 00:13:04,VALID,1004.39,VALID,0,VALID,94.1251,VALID,0,VALID,23.7619,VALID,20,VALID,0,
2009-11-01, 00:14:04,VALID,1004.37,VALID,0,VALID,94.148,VALID,0,VALID,23.723,VALID,20,VALID,0,
2009-11-01, 00:15:04,VALID,1004.37,VALID,0,VALID,94.1862,VALID,0,VALID,23.723,VALID,20,VALID,0,
2009-11-01, 00:16:04,VALID,1004.37,VALID,0,VALID,94.293,VALID,0,VALID,23.7814,VALID,20,VALID,0,
2009-11-01, 00:17:04,VALID,1004.35,VALID,0,VALID,94.3616,VALID,0,VALID,23.7814,VALID,20,VALID,0,
2009-11-01, 00:18:04,VALID,1004.36,VALID,0,VALID,94.3998,VALID,0,VALID,23.8009,VALID,20,VALID,0,
2009-11-01, 00:19:04,VALID,1004.33,VALID,0,VALID,94.4227,VALID,0,VALID,23.7991,VALID,20,VALID,0,
2009-11-01, 00:20:04,VALID,1004.33,VALID,0,VALID,94.4608,VALID,0,VALID,23.8185,VALID,20,VALID,0,
2009-11-01, 00:21:04,VALID,1004.28,VALID,0,VALID,94.4227,VALID,0,VALID,23.8203,VALID,20,VALID,0,
2009-11-01, 00:22:04,VALID,1004.26,VALID,0,VALID,94.3998,VALID,0,VALID,23.8221,VALID,20,VALID,0,
2009-11-01, 00:23:04,VALID,1004.24,VALID,0,VALID,94.3692,VALID,0,VALID,23.8221,VALID,20,VALID,0,
2009-11-01, 00:24:04,VALID,1004.2,VALID,0,VALID,94.3464,VALID,0,VALID,23.7814,VALID,20,VALID,0,
2009-11-01, 00:25:04,VALID,1004.16,VALID,0,VALID,94.3311,VALID,0,VALID,23.8185,VALID,20,VALID,0,
2009-11-01, 00:26:04,VALID,1004.14,VALID,0,VALID,94.354,VALID,0,VALID,23.8185,VALID,20,VALID,0,
2009-11-01, 00:27:04,VALID,1004.11,VALID,0,VALID,94.354,VALID,0,VALID,23.8593,VALID,20,VALID,0,
2009-11-01, 00:28:04,VALID,1004.1,VALID,0,VALID,94.3158,VALID,0,VALID,23.8787,VALID,20,VALID,0,
2009-11-01, 00:29:04,VALID,1004.04,VALID,0,VALID,94.2777,VALID,0,VALID,23.8593,VALID,20,VALID,0,
2009-11-01, 00:30:04,VALID,1004.05,VALID,0,VALID,94.1862,VALID,0,VALID,23.8398,VALID,20,VALID,0,
2009-11-01, 00:31:04,VALID,1004.02,VALID,0,VALID,94.0794,VALID,0,VALID,23.8398,VALID,20,VALID,0,
2009-11-01, 00:32:04,VALID,1004.01,VALID,0,VALID,94.0031,VALID,0,VALID,23.7991,VALID,20,VALID,0,
2009-11-01, 00:33:04,VALID,1004,VALID,0,VALID,93.9649,VALID,0,VALID,23.7796,VALID,20,VALID,0,
2009-11-01, 00:34:04,VALID,1004.04,VALID,0,VALID,93.9497,VALID,0,VALID,23.7814,VALID,20,VALID,0,
2009-11-01, 00:35:04,VALID,1004.01,VALID,0,VALID,93.9649,VALID,0,VALID,23.7796,VALID,20,VALID,0,
2009-11-01, 00:36:04,VALID,1003.98,VALID,0,VALID,93.942,VALID,0,VALID,23.7814,VALID,20,VALID,0,
2009-11-01, 00:37:04,VALID,1003.98,VALID,0,VALID,93.9191,VALID,0,VALID,23.7425,VALID,20,VALID,0,
2009-11-01, 00:38:04,VALID,1003.96,VALID,0,VALID,93.9115,VALID,0,VALID,23.7619,VALID,20,VALID,0,
2009-11-01, 00:39:04,VALID,1003.92,VALID,0,VALID,93.9039,VALID,0,VALID,23.7619,VALID,20,VALID,0,
2009-11-01, 00:40:04,VALID,1003.91,VALID,0,VALID,93.9344,VALID,0,VALID,23.7601,VALID,20,VALID,0,
2009-11-01, 00:41:04,VALID,1003.89,VALID,0,VALID,93.9191,VALID,0,VALID,23.7601,VALID,20,VALID,0,
2009-11-01, 00:42:04,VALID,1003.88,VALID,0,VALID,93.942,VALID,0,VALID,23.8009,VALID,20,VALID,0,
2009-11-01, 00:43:04,VALID,1003.84,VALID,0,VALID,93.942,VALID,0,VALID,23.7619,VALID,20,VALID,0,
2009-11-01, 00:44:04,VALID,1003.84,VALID,0,VALID,93.9191,VALID,0,VALID,23.7619,VALID,20,VALID,0,
2009-11-01, 00:45:04,VALID,1003.81,VALID,0,VALID,93.8886,VALID,0,VALID,23.7425,VALID,20,VALID,0,
2009-11-01, 00:46:04,VALID,1003.86,VALID,0,VALID,93.8581,VALID,0,VALID,23.723,VALID,20,VALID,0,
2009-11-01, 00:47:04,VALID,1003.87,VALID,0,VALID,93.8047,VALID,0,VALID,23.6823,VALID,20,VALID,0,
2009-11-01, 00:48:04,VALID,1003.88,VALID,0,VALID,93.7361,VALID,0,VALID,23.6646,VALID,20,VALID,0,
2009-11-01, 00:49:04,VALID,1003.89,VALID,0,VALID,93.7055,VALID,0,VALID,23.6257,VALID,20,VALID,0,
2009-11-01, 00:50:04,VALID,1003.88,VALID,0,VALID,93.7055,VALID,0,VALID,23.6062,VALID,20,VALID,0,
2009-11-01, 00:51:04,VALID,1003.89,VALID,0,VALID,93.6292,VALID,0,VALID,23.5478,VALID,20,VALID,0,
2009-11-01, 00:52:04,VALID,1003.88,VALID,0,VALID,93.6064,VALID,0,VALID,23.5089,VALID,20,VALID,0,
2009-11-01, 00:53:04,VALID,1003.85,VALID,0,VALID,93.6598,VALID,0,VALID,23.4682,VALID,20,VALID,0,
2009-11-01, 00:54:04,VALID,1003.84,VALID,0,VALID,93.7666,VALID,0,VALID,23.47,VALID,20,VALID,0,
2009-11-01, 00:55:04,VALID,1003.85,VALID,0,VALID,93.8657,VALID,0,VALID,23.4894,VALID,20,VALID,0,
2009-11-01, 00:56:04,VALID,1003.84,VALID,0,VALID,93.9497,VALID,0,VALID,23.4877,VALID,20,VALID,0,
2009-11-01, 00:57:04,VALID,1003.84,VALID,0,VALID,94.0259,VALID,0,VALID,23.5284,VALID,20,VALID,0,
2009-11-01, 00:58:04,VALID,1003.83,VALID,0,VALID,94.0717,VALID,0,VALID,23.4894,VALID,20,VALID,0,
2009-11-01, 00:59:04,VALID,1003.83,VALID,0,VALID,94.1022,VALID,0,VALID,23.4877,VALID,20,VALID,0,
2009-11-01, 01:00:04,VALID,1003.85,VALID,0,VALID,94.1633,VALID,0,VALID,23.5284,VALID,20,VALID,0,
2009-11-01, 01:01:04,VALID,1003.82,VALID,0,VALID,94.1862,VALID,0,VALID,23.5284,VALID,20,VALID,0,
2009-11-01, 01:02:04,VALID,1003.8,VALID,0,VALID,94.1709,VALID,0,VALID,23.5089,VALID,20,VALID,0,
2009-11-01, 01:03:04,VALID,1003.8,VALID,0,VALID,94.2014,VALID,0,VALID,23.5284,VALID,20,VALID,0,
2009-11-01, 01:04:04,VALID,1003.75,VALID,0,VALID,94.354,VALID,0,VALID,23.5673,VALID,19,VALID,0,
2009-11-01, 01:05:04,VALID,1003.76,VALID,0,VALID,94.4227,VALID,0,VALID,23.6257,VALID,19,VALID,0,
2009-11-01, 01:06:04,VALID,1003.72,VALID,0,VALID,94.4913,VALID,0,VALID,23.6646,VALID,16,VALID,0,
2009-11-01, 01:07:04,VALID,1003.71,VALID,0,VALID,94.5066,VALID,0,VALID,23.6841,VALID,16,VALID,0,
2009-11-01, 01:08:04,VALID,1003.7,VALID,0,VALID,94.4684,VALID,0,VALID,23.7035,VALID,16,VALID,0,
2009-11-01, 01:09:04,VALID,1003.69,VALID,0,VALID,94.4379,VALID,0,VALID,23.6646,VALID,16,VALID,0,
2009-11-01, 01:10:04,VALID,1003.71,VALID,0,VALID,94.3769,VALID,0,VALID,23.6646,VALID,16,VALID,0,
2009-11-01, 01:11:04,VALID,1003.71,VALID,0,VALID,94.3769,VALID,0,VALID,23.6452,VALID,16,VALID,0,
2009-11-01, 01:12:04,VALID,1003.72,VALID,0,VALID,94.3235,VALID,0,VALID,23.6044,VALID,16,VALID,0,
2009-11-01, 01:13:04,VALID,1003.73,VALID,0,VALID,94.2548,VALID,0,VALID,23.5673,VALID,16,VALID,0,
2009-11-01, 01:14:04,VALID,1003.74,VALID,0,VALID,94.2319,VALID,0,VALID,23.5478,VALID,16,VALID,0,
2009-11-01, 01:15:04,VALID,1003.72,VALID,0,VALID,94.2167,VALID,0,VALID,23.5284,VALID,16,VALID,0,
2009-11-01, 01:16:04,VALID,1003.72,VALID,0,VALID,94.2243,VALID,0,VALID,23.5266,VALID,16,VALID,0,
2009-11-01, 01:17:04,VALID,1003.75,VALID,0,VALID,94.3235,VALID,0,VALID,23.546,VALID,16,VALID,0,
2009-11-01, 01:18:04,VALID,1003.74,VALID,0,VALID,94.415,VALID,0,VALID,23.5868,VALID,16,VALID,0,
2009-11-01, 01:19:04,VALID,1003.75,VALID,0,VALID,94.4684,VALID,0,VALID,23.6062,VALID,16,VALID,0,
2009-11-01, 01:20:04,VALID,1003.76,VALID,0,VALID,94.4608,VALID,0,VALID,23.5673,VALID,16,VALID,0,
2009-11-01, 01:21:04,VALID,1003.74,VALID,0,VALID,94.4227,VALID,0,VALID,23.5673,VALID,16,VALID,0,
2009-11-01, 01:22:04,VALID,1003.71,VALID,0,VALID,94.415,VALID,0,VALID,23.5478,VALID,16,VALID,0,
2009-11-01, 01:23:04,VALID,1003.7,VALID,0,VALID,94.4379,VALID,0,VALID,23.5673,VALID,16,VALID,0,
2009-11-01, 01:24:04,VALID,1003.65,VALID,0,VALID,94.4379,VALID,0,VALID,23.5284,VALID,16,VALID,0,
2009-11-01, 01:25:04,VALID,1003.57,VALID,0,VALID,94.4227,VALID,0,VALID,23.5284,VALID,16,VALID,0,
2009-11-01, 01:26:04,VALID,1003.54,VALID,0,VALID,94.4227,VALID,0,VALID,23.5284,VALID,16,VALID,0,
2009-11-01, 01:27:04,VALID,1003.52,VALID,0,VALID,94.4455,VALID,0,VALID,23.5284,VALID,16,VALID,0,
2009-11-01, 01:28:04,VALID,1003.5,VALID,0,VALID,94.4455,VALID,0,VALID,23.4859,VALID,16,VALID,0,
2009-11-01, 01:29:04,VALID,1003.5,VALID,0,VALID,94.4837,VALID,0,VALID,23.5071,VALID,16,VALID,0,
2009-11-01, 01:30:04,VALID,1003.46,VALID,0,VALID,94.4913,VALID,0,VALID,23.5071,VALID,16,VALID,0,
2009-11-01, 01:31:04,VALID,1003.45,VALID,0,VALID,94.4761,VALID,0,VALID,23.5071,VALID,16,VALID,0,
2009-11-01, 01:32:04,VALID,1003.49,VALID,0,VALID,94.5218,VALID,0,VALID,23.5089,VALID,16,VALID,0,
2009-11-01, 01:33:04,VALID,1003.45,VALID,0,VALID,94.5218,VALID,0.100563,VALID,23.5089,VALID,16,VALID,0,
2009-11-01, 01:34:04,VALID,1003.46,VALID,0,VALID,94.5142,VALID,0,VALID,23.4877,VALID,16,VALID,0,
2009-11-01, 01:35:04,VALID,1003.42,VALID,0,VALID,94.5066,VALID,0,VALID,23.4682,VALID,16,VALID,0,
2009-11-01, 01:36:04,VALID,1003.38,VALID,0,VALID,94.4837,VALID,0,VALID,23.47,VALID,16,VALID,0,
2009-11-01, 01:37:04,VALID,1003.33,VALID,0,VALID,94.4684,VALID,0,VALID,23.4682,VALID,16,VALID,0,
2009-11-01, 01:38:04,VALID,1003.31,VALID,0,VALID,94.4532,VALID,0,VALID,23.4682,VALID,16,VALID,0,
2009-11-01, 01:39:04,VALID,1003.31,VALID,0,VALID,94.4532,VALID,0,VALID,23.4682,VALID,16,VALID,0,
2009-11-01, 01:40:04,VALID,1003.29,VALID,0,VALID,94.4608,VALID,0.100563,VALID,23.4877,VALID,16,VALID,0,
2009-11-01, 01:41:04,VALID,1003.28,VALID,0,VALID,94.4379,VALID,0.100563,VALID,23.4664,VALID,16,VALID,0,
2009-11-01, 01:42:04,VALID,1003.31,VALID,0,VALID,94.4074,VALID,0.100563,VALID,23.4682,VALID,10,VALID,0,
2009-11-01, 01:43:04,VALID,1003.29,VALID,0,VALID,94.4074,VALID,0.100563,VALID,23.4682,VALID,9,VALID,0,
2009-11-01, 01:44:04,VALID,1003.29,VALID,0,VALID,94.4227,VALID,0.100563,VALID,23.4275,VALID,7,VALID,0.571875,
2009-11-01, 01:45:04,VALID,1003.28,VALID,0,VALID,94.4684,VALID,0.100563,VALID,23.4664,VALID,7,VALID,0.533203,
2009-11-01, 01:46:04,VALID,1003.27,VALID,0,VALID,94.5066,VALID,0.100563,VALID,23.5071,VALID,7,VALID,0.325781,
2009-11-01, 01:47:04,VALID,1003.23,VALID,0,VALID,94.56,VALID,0.100563,VALID,23.4859,VALID,7,VALID,0.294922,
2009-11-01, 01:48:04,VALID,1003.25,VALID,0,VALID,94.5752,VALID,0.100563,VALID,23.4859,VALID,7,VALID,0.395703,
2009-11-01, 01:49:04,VALID,1003.25,VALID,0,VALID,94.5371,VALID,0.100563,VALID,23.5071,VALID,3,VALID,0.526563,
2009-11-01, 01:50:04,VALID,1003.22,VALID,0,VALID,94.5218,VALID,0.100563,VALID,23.4682,VALID,3,VALID,0.583594,
2009-11-01, 01:51:04,VALID,1003.21,VALID,0,VALID,94.5447,VALID,0.100563,VALID,23.447,VALID,3,VALID,0.623828,
2009-11-01, 01:52:04,VALID,1003.23,VALID,0,VALID,94.5371,VALID,0.100563,VALID,23.4664,VALID,3,VALID,0.698828,
2009-11-01, 01:53:04,VALID,1003.22,VALID,0,VALID,94.5295,VALID,0.100563,VALID,23.4664,VALID,3,VALID,0.700391,
2009-11-01, 01:54:04,VALID,1003.23,VALID,0,VALID,94.5447,VALID,0,VALID,23.4682,VALID,3,VALID,0.665234,
2009-11-01, 01:55:04,VALID,1003.23,VALID,0,VALID,94.5676,VALID,0.100563,VALID,23.4682,VALID,3,VALID,0.451172,
2009-11-01, 01:56:04,VALID,1003.25,VALID,0,VALID,94.5676,VALID,0.100563,VALID,23.447,VALID,3,VALID,0.511328,
2009-11-01, 01:57:04,VALID,1003.23,VALID,0,VALID,94.6134,VALID,0.100563,VALID,23.4877,VALID,3,VALID,0.494141,
2009-11-01, 01:58:04,VALID,1003.24,VALID,0,VALID,94.6439,VALID,0.100563,VALID,23.4894,VALID,3,VALID,0.363672,
2009-11-01, 01:59:04,VALID,1003.24,VALID,0,VALID,94.6668,VALID,0,VALID,23.5089,VALID,3,VALID,0.44375,
2009-11-01, 02:00:04,VALID,1003.23,VALID,0,VALID,94.6897,VALID,0,VALID,23.4877,VALID,3,VALID,0.420703,
2009-11-01, 02:01:04,VALID,1003.23,VALID,0,VALID,94.682,VALID,0.100563,VALID,23.5071,VALID,3,VALID,0.166406,
2009-11-01, 02:02:04,VALID,1003.23,VALID,0,VALID,94.6973,VALID,0,VALID,23.4877,VALID,3,VALID,0.242188,
2009-11-01, 02:03:04,VALID,1003.19,VALID,0,VALID,94.6744,VALID,0,VALID,23.4877,VALID,3,VALID,0.313672,
2009-11-01, 02:04:04,VALID,1003.2,VALID,0,VALID,94.6744,VALID,0,VALID,23.4682,VALID,3,VALID,0.277344,
2009-11-01, 02:05:04,VALID,1003.15,VALID,0,VALID,94.6897,VALID,0.100563,VALID,23.4894,VALID,3,VALID,0.196875,
2009-11-01, 02:06:04,VALID,1003.14,VALID,0,VALID,94.7049,VALID,0,VALID,23.4877,VALID,3,VALID,0.138281,
2009-11-01, 02:07:04,VALID,1003.15,VALID,0,VALID,94.7354,VALID,0,VALID,23.4877,VALID,3,VALID,0,
2009-11-01, 02:08:04,VALID,1003.13,VALID,0,VALID,94.7431,VALID,0,VALID,23.5071,VALID,3,VALID,0,
2009-11-01, 02:09:04,VALID,1003.14,VALID,0,VALID,94.766,VALID,0,VALID,23.5266,VALID,3,VALID,0.122656,
2009-11-01, 02:10:04,VALID,1003.11,VALID,0,VALID,94.7965,VALID,0,VALID,23.5478,VALID,3,VALID,0.197266,
2009-11-01, 02:11:04,VALID,1003.13,VALID,0,VALID,94.7888,VALID,0,VALID,23.5478,VALID,3,VALID,0.318359,
2009-11-01, 02:12:04,VALID,1003.14,VALID,0,VALID,94.7812,VALID,0,VALID,23.5071,VALID,3,VALID,0.273047,
2009-11-01, 02:13:04,VALID,1003.12,VALID,0,VALID,94.766,VALID,0,VALID,23.5071,VALID,3,VALID,0.394141,
2009-11-01, 02:14:04,VALID,1003.12,VALID,0,VALID,94.7507,VALID,0.100563,VALID,23.4877,VALID,3,VALID,0.416797,
2009-11-01, 02:15:04,VALID,1003.07,VALID,0,VALID,94.7354,VALID,0,VALID,23.4877,VALID,3,VALID,0.412109,
2009-11-01, 02:16:04,VALID,1003.03,VALID,0,VALID,94.7125,VALID,0,VALID,23.4487,VALID,3,VALID,0.4375,
2009-11-01, 02:17:04,VALID,1003.03,VALID,0,VALID,94.6973,VALID,0,VALID,23.4487,VALID,3,VALID,0.439063,
2009-11-01, 02:18:04,VALID,1003.02,VALID,0,VALID,94.6973,VALID,0,VALID,23.4293,VALID,3,VALID,0.360938,
2009-11-01, 02:19:04,VALID,1003.01,VALID,0,VALID,94.6973,VALID,0,VALID,23.4293,VALID,3,VALID,0.346484,
2009-11-01, 02:20:04,VALID,1002.99,VALID,0,VALID,94.6897,VALID,0,VALID,23.4293,VALID,3,VALID,0.303516,
2009-11-01, 02:21:04,VALID,1003.01,VALID,0,VALID,94.7202,VALID,0,VALID,23.4293,VALID,3,VALID,0.263281,
2009-11-01, 02:22:04,VALID,1002.97,VALID,0,VALID,94.7278,VALID,0,VALID,23.4311,VALID,3,VALID,0.368359,
2009-11-01, 02:23:04,VALID,1002.99,VALID,0,VALID,94.7583,VALID,0,VALID,23.4098,VALID,3,VALID,0.165625,
2009-11-01, 02:24:04,VALID,1002.98,VALID,0,VALID,94.7354,VALID,0,VALID,23.4311,VALID,3,VALID,0.40625,
2009-11-01, 02:25:04,VALID,1002.98,VALID,0,VALID,94.7583,VALID,0,VALID,23.4098,VALID,3,VALID,0.0410156,
2009-11-01, 02:26:04,VALID,1003,VALID,0,VALID,94.766,VALID,0.100563,VALID,23.3904,VALID,3,VALID,0,
2009-11-01, 02:27:04,VALID,1002.98,VALID,0,VALID,94.7736,VALID,0,VALID,23.3904,VALID,3,VALID,0.0898438,
2009-11-01, 02:28:04,VALID,1003.03,VALID,0,VALID,94.7888,VALID,0.100563,VALID,23.4098,VALID,3,VALID,0,
2009-11-01, 02:29:04,VALID,1003.02,VALID,0,VALID,94.7965,VALID,0,VALID,23.4098,VALID,3,VALID,0.159375,
2009-11-01, 02:30:04,VALID,1003.01,VALID,0,VALID,94.7965,VALID,0,VALID,23.4098,VALID,3,VALID,0.336328,
2009-11-01, 02:31:04,VALID,1003.04,VALID,0,VALID,94.827,VALID,0,VALID,23.3709,VALID,3,VALID,0.192578,
2009-11-01, 02:32:04,VALID,1003.04,VALID,0,VALID,94.8346,VALID,0,VALID,23.3904,VALID,3,VALID,0,
2009-11-01, 02:33:04,VALID,1003.06,VALID,0,VALID,94.8346,VALID,0,VALID,23.3904,VALID,3,VALID,0.028125,
2009-11-01, 02:34:04,VALID,1003.04,VALID,0,VALID,94.8575,VALID,0,VALID,23.3709,VALID,3,VALID,0,
2009-11-01, 02:35:04,VALID,1003.05,VALID,0,VALID,94.8651,VALID,0.100563,VALID,23.3709,VALID,3,VALID,0,
2009-11-01, 02:36:04,VALID,1003.02,VALID,0,VALID,94.8651,VALID,0,VALID,23.3709,VALID,3,VALID,0,
2009-11-01, 02:37:04,VALID,1003.03,VALID,0,VALID,94.8728,VALID,0,VALID,23.3709,VALID,3,VALID,0,
2009-11-01, 02:38:04,VALID,1003.03,VALID,0,VALID,94.8728,VALID,0,VALID,23.3727,VALID,3,VALID,0.0183594,
2009-11-01, 02:39:04,VALID,1003.06,VALID,0,VALID,94.8422,VALID,0.100563,VALID,23.3302,VALID,3,VALID,0.598828,
2009-11-01, 02:40:04,VALID,1003.06,VALID,0,VALID,94.8728,VALID,0,VALID,23.3514,VALID,3,VALID,0.549609,
2009-11-01, 02:41:04,VALID,1003.09,VALID,0,VALID,94.888,VALID,0,VALID,23.3709,VALID,3,VALID,0.539063,
2009-11-01, 02:42:04,VALID,1003.11,VALID,0,VALID,94.9338,VALID,0,VALID,23.4293,VALID,3,VALID,0.374609,
2009-11-01, 02:43:04,VALID,1003.13,VALID,0,VALID,94.9719,VALID,0,VALID,23.4487,VALID,3,VALID,0.240625,
2009-11-01, 02:44:04,VALID,1003.12,VALID,0,VALID,94.9796,VALID,0,VALID,23.47,VALID,3,VALID,0.195313,
2009-11-01, 02:45:04,VALID,1003.15,VALID,0,VALID,94.9719,VALID,0,VALID,23.47,VALID,3,VALID,0.229687,
2009-11-01, 02:46:04,VALID,1003.14,VALID,0,VALID,94.9719,VALID,0,VALID,23.47,VALID,3,VALID,0.279297,
2009-11-01, 02:47:04,VALID,1003.14,VALID,0,VALID,94.9643,VALID,0,VALID,23.47,VALID,3,VALID,0.426953,
2009-11-01, 02:48:04,VALID,1003.16,VALID,0,VALID,94.9567,VALID,0,VALID,23.4293,VALID,3,VALID,0.565625,
2009-11-01, 02:49:04,VALID,1003.19,VALID,0,VALID,94.949,VALID,0,VALID,23.4293,VALID,2,VALID,0.596875,
2009-11-01, 02:50:04,VALID,1003.21,VALID,0,VALID,94.9948,VALID,0,VALID,23.47,VALID,353,VALID,0.707031,
2009-11-01, 02:51:04,VALID,1003.24,VALID,0,VALID,94.9719,VALID,0,VALID,23.4894,VALID,359,VALID,0.605859,
2009-11-01, 02:52:04,VALID,1003.26,VALID,0,VALID,94.9643,VALID,0,VALID,23.4877,VALID,348,VALID,0.590234,
2009-11-01, 02:53:04,VALID,1003.24,VALID,0,VALID,94.9948,VALID,0,VALID,23.5284,VALID,341,VALID,0.403125,
2009-11-01, 02:54:04,VALID,1003.25,VALID,0,VALID,95.0101,VALID,0,VALID,23.5655,VALID,341,VALID,0.438672,
2009-11-01, 02:55:04,VALID,1003.24,VALID,0,VALID,95.0177,VALID,0,VALID,23.6062,VALID,352,VALID,0.314844,
2009-11-01, 02:56:04,VALID,1003.26,VALID,0,VALID,95.0177,VALID,0,VALID,23.6257,VALID,352,VALID,0.355469,
2009-11-01, 02:57:04,VALID,1003.25,VALID,0,VALID,94.9872,VALID,0,VALID,23.6044,VALID,352,VALID,0.364062,
2009-11-01, 02:58:04,VALID,1003.25,VALID,0,VALID,94.949,VALID,0,VALID,23.6044,VALID,352,VALID,0.189844,
2009-11-01, 02:59:04,VALID,1003.22,VALID,0,VALID,94.9262,VALID,0,VALID,23.6044,VALID,352,VALID,0.240234,
2009-11-01, 03:00:04,VALID,1003.22,VALID,0,VALID,94.9109,VALID,0,VALID,23.585,VALID,352,VALID,0.210156,
2009-11-01, 03:01:04,VALID,1003.25,VALID,0,VALID,94.8728,VALID,0,VALID,23.6239,VALID,352,VALID,0.205078,
2009-11-01, 03:02:04,VALID,1003.23,VALID,0,VALID,94.8575,VALID,0,VALID,23.6452,VALID,352,VALID,0,
2009-11-01, 03:03:04,VALID,1003.23,VALID,0,VALID,94.8499,VALID,0,VALID,23.6044,VALID,352,VALID,0,
2009-11-01, 03:04:04,VALID,1003.24,VALID,0,VALID,94.7888,VALID,0,VALID,23.6044,VALID,352,VALID,0,
2009-11-01, 03:05:04,VALID,1003.23,VALID,0,VALID,94.7583,VALID,0,VALID,23.6044,VALID,352,VALID,0,
2009-11-01, 03:06:04,VALID,1003.26,VALID,0,VALID,94.7125,VALID,0,VALID,23.6257,VALID,352,VALID,0,
2009-11-01, 03:07:04,VALID,1003.26,VALID,0,VALID,94.6897,VALID,0,VALID,23.6257,VALID,352,VALID,0,
2009-11-01, 03:08:04,VALID,1003.28,VALID,0,VALID,94.6897,VALID,0,VALID,23.6452,VALID,352,VALID,0,
2009-11-01, 03:09:04,VALID,1003.27,VALID,0,VALID,94.682,VALID,0,VALID,23.6239,VALID,351,VALID,0.352734,
2009-11-01, 03:10:04,VALID,1003.27,VALID,0,VALID,94.6897,VALID,0,VALID,23.6452,VALID,351,VALID,0.172656,
2009-11-01, 03:11:04,VALID,1003.26,VALID,0,VALID,94.6973,VALID,0,VALID,23.6841,VALID,350,VALID,0.134766,
2009-11-01, 03:12:04,VALID,1003.25,VALID,0,VALID,94.6515,VALID,0,VALID,23.6452,VALID,350,VALID,0.342187,
2009-11-01, 03:13:04,VALID,1003.24,VALID,0,VALID,94.621,VALID,0,VALID,23.6628,VALID,350,VALID,0.203125,
2009-11-01, 03:14:04,VALID,1003.24,VALID,0,VALID,94.5905,VALID,0,VALID,23.7035,VALID,350,VALID,0.165625,
2009-11-01, 03:15:04,VALID,1003.24,VALID,0,VALID,94.5676,VALID,0,VALID,23.6628,VALID,350,VALID,0.285156,
2009-11-01, 03:16:04,VALID,1003.24,VALID,0,VALID,94.4989,VALID,0,VALID,23.6841,VALID,350,VALID,0.237891,
2009-11-01, 03:17:04,VALID,1003.23,VALID,0,VALID,94.4455,VALID,0,VALID,23.6434,VALID,350,VALID,0,
2009-11-01, 03:18:04,VALID,1003.25,VALID,0,VALID,94.3692,VALID,0,VALID,23.6646,VALID,350,VALID,0.328125,
2009-11-01, 03:19:04,VALID,1003.25,VALID,0,VALID,94.3616,VALID,0,VALID,23.6841,VALID,350,VALID,0.256641,
2009-11-01, 03:20:04,VALID,1003.28,VALID,0,VALID,94.3311,VALID,0,VALID,23.6628,VALID,350,VALID,0,
2009-11-01, 03:21:04,VALID,1003.31,VALID,0,VALID,94.3387,VALID,0,VALID,23.6823,VALID,350,VALID,0,
2009-11-01, 03:22:04,VALID,1003.33,VALID,0,VALID,94.3311,VALID,0,VALID,23.7425,VALID,350,VALID,0,
2009-11-01, 03:23:04,VALID,1003.3,VALID,0,VALID,94.3158,VALID,0,VALID,23.7425,VALID,350,VALID,0,
2009-11-01, 03:24:04,VALID,1003.3,VALID,0,VALID,94.293,VALID,0,VALID,23.723,VALID,82,VALID,0,
2009-11-01, 03:25:04,VALID,1003.31,VALID,0,VALID,94.2396,VALID,0,VALID,23.6823,VALID,92,VALID,0,
2009-11-01, 03:26:04,VALID,1003.3,VALID,0,VALID,94.1862,VALID,0,VALID,23.6646,VALID,92,VALID,0,
2009-11-01, 03:27:04,VALID,1003.29,VALID,0,VALID,94.148,VALID,0,VALID,23.6239,VALID,92,VALID,0,
2009-11-01, 03:28:04,VALID,1003.28,VALID,0,VALID,94.148,VALID,0,VALID,23.5832,VALID,92,VALID,0,
2009-11-01, 03:29:04,VALID,1003.29,VALID,0,VALID,94.1328,VALID,0,VALID,23.6275,VALID,92,VALID,0,
2009-11-01, 03:30:04,VALID,1003.3,VALID,0,VALID,94.1556,VALID,0,VALID,23.585,VALID,92,VALID,0,
2009-11-01, 03:31:04,VALID,1003.28,VALID,0,VALID,94.1556,VALID,0,VALID,23.6062,VALID,92,VALID,0,
2009-11-01, 03:32:04,VALID,1003.29,VALID,0,VALID,94.2396,VALID,0,VALID,23.6257,VALID,92,VALID,0,
2009-11-01, 03:33:04,VALID,1003.3,VALID,0,VALID,94.293,VALID,0,VALID,23.6044,VALID,92,VALID,0,
2009-11-01, 03:34:04,VALID,1003.3,VALID,0,VALID,94.2777,VALID,0,VALID,23.6062,VALID,92,VALID,0,
2009-11-01, 03:35:04,VALID,1003.33,VALID,0,VALID,94.2548,VALID,0,VALID,23.5655,VALID,92,VALID,0,
2009-11-01, 03:36:04,VALID,1003.36,VALID,0,VALID,94.2853,VALID,0,VALID,23.5655,VALID,92,VALID,0,
2009-11-01, 03:37:04,VALID,1003.35,VALID,0,VALID,94.3082,VALID,0,VALID,23.5655,VALID,90,VALID,0,
2009-11-01, 03:38:04,VALID,1003.36,VALID,0,VALID,94.2853,VALID,0,VALID,23.5266,VALID,80,VALID,0,
2009-11-01, 03:39:04,VALID,1003.38,VALID,0,VALID,94.2701,VALID,0,VALID,23.5284,VALID,80,VALID,0,
2009-11-01, 03:40:04,VALID,1003.39,VALID,0,VALID,94.293,VALID,0,VALID,23.5071,VALID,80,VALID,0,
2009-11-01, 03:41:04,VALID,1003.38,VALID,0,VALID,94.293,VALID,0,VALID,23.5284,VALID,80,VALID,0,
2009-11-01, 03:42:04,VALID,1003.37,VALID,0,VALID,94.3158,VALID,0,VALID,23.5284,VALID,80,VALID,0,
2009-11-01, 03:43:04,VALID,1003.37,VALID,0,VALID,94.3006,VALID,0,VALID,23.5089,VALID,80,VALID,0,
2009-11-01, 03:44:04,VALID,1003.36,VALID,0,VALID,94.3082,VALID,0,VALID,23.5089,VALID,80,VALID,0,
2009-11-01, 03:45:04,VALID,1003.33,VALID,0,VALID,94.3387,VALID,0,VALID,23.5284,VALID,80,VALID,0,
2009-11-01, 03:46:04,VALID,1003.34,VALID,0,VALID,94.3616,VALID,0,VALID,23.5071,VALID,75,VALID,0,
2009-11-01, 03:47:04,VALID,1003.34,VALID,0,VALID,94.4303,VALID,0,VALID,23.546,VALID,20,VALID,0,
2009-11-01, 03:48:04,VALID,1003.32,VALID,0,VALID,94.5142,VALID,0,VALID,23.6257,VALID,352,VALID,0,
2009-11-01, 03:49:04,VALID,1003.34,VALID,0,VALID,94.5066,VALID,0,VALID,23.6239,VALID,352,VALID,0,
2009-11-01, 03:50:04,VALID,1003.34,VALID,0,VALID,94.5142,VALID,0,VALID,23.6434,VALID,352,VALID,0,
2009-11-01, 03:51:04,VALID,1003.29,VALID,0,VALID,94.5142,VALID,0,VALID,23.6805,VALID,88,VALID,0.194922,
2009-11-01, 03:52:04,VALID,1003.33,VALID,0,VALID,94.5829,VALID,0,VALID,23.7814,VALID,138,VALID,0.212109,
2009-11-01, 03:53:04,VALID,1003.33,VALID,0,VALID,94.5676,VALID,0,VALID,23.838,VALID,110,VALID,0.230469,
2009-11-01, 03:54:04,VALID,1003.34,VALID,0,VALID,94.56,VALID,0,VALID,23.9177,VALID,110,VALID,0.300781,
2009-11-01, 03:55:04,VALID,1003.32,VALID,0,VALID,94.4761,VALID,0,VALID,23.9761,VALID,346,VALID,0.335156,